Warroad, MN

1:28 AM CST on February 08, 2016 (GMT -0600)
Warroad International-Carlson

Weather History for KRRT - August, 2013

Change the Weather History Date:

Thursday, August 22, 2013

  Actual Average Record
Temperature  
Mean Temperature 60 °F -  
Max Temperature 75 °F 73 °F 88 °F (1953)
Min Temperature 46 °F 52 °F 30 °F (1964)
Degree Days  
Heating Degree Days 4    
Growing Degree Days 10 (Base 50)    
Moisture  
Dew Point 50 °F    
Average Humidity 68    
Maximum Humidity 88    
Minimum Humidity 46    
Precipitation  
Precipitation 0.00 in - - ()
Sea Level Pressure  
Sea Level Pressure 30.16 in    
Wind  
Wind Speed 4 mph (West)    
Max Wind Speed 9 mph    
Max Gust Speed -    
Visibility 10 miles    
Events      
Averages and records for this station are not official NWS values.
T = Trace of Precipitation, MM = Missing Value Source: NWS Daily Summary

Daily Weather History Graph

Daily Weather History Graph

Search for Another Location

Airport or City:

Trip Planner

Search our weather history database for the weather conditions in past years. The results will help you decide how hot, cold, wet, or windy it might be!

Date:

Astronomy

Aug. 22, 2013 Rise Set
Actual Time 6:24 AM CDT 8:23 PM CDT
Civil Twilight 5:50 AM CDT 8:57 PM CDT
Nautical Twilight 5:08 AM CDT 9:38 PM CDT
Astronomical Twilight 4:20 AM CDT 10:25 PM CDT
Moon 8:50 PM CDT (8/22) 8:28 AM CDT (8/22)
Length of Visible Light 15h 06m
Length of Day
13h 58m
Waning Gibbous, 96% of the Moon is Illuminated
Aug 22
Waning Gibbous
Aug 28
Last Quarter
Sep 5
New
Sep 12
First Quarter
Sep 19
Full

Hourly Weather History & Observations

Time (CDT) Temp. Windchill Dew Point Humidity Pressure Visibility Wind Dir Wind Speed Gust Speed Precip Events Conditions
12:14 AM 53.6 °F - 46.4 °F 77% 30.10 in 10.0 mi WSW 3.5 mph - N/A   Clear
12:34 AM 55.4 °F - 46.4 °F 72% 30.10 in 10.0 mi WSW 3.5 mph - N/A   Clear
12:53 AM 53.6 °F - 46.4 °F 77% 30.10 in 10.0 mi Calm Calm - N/A   Clear
1:14 AM 53.6 °F - 46.4 °F 77% 30.11 in 10.0 mi WSW 4.6 mph - N/A   Clear
1:34 AM 55.4 °F - 46.4 °F 72% 30.11 in 10.0 mi Calm Calm - N/A   Clear
1:54 AM 55.4 °F - 46.4 °F 72% 30.12 in 10.0 mi WNW 8.1 mph - N/A   Clear
2:14 AM 57.2 °F - 46.4 °F 67% 30.12 in 10.0 mi West 8.1 mph - N/A   Clear
2:34 AM 55.4 °F - 46.4 °F 72% 30.12 in 10.0 mi West 3.5 mph - N/A   Clear
2:54 AM 53.6 °F - 46.4 °F 77% 30.13 in 10.0 mi West 4.6 mph - N/A   Clear
3:14 AM 51.8 °F - 46.4 °F 82% 30.13 in 10.0 mi West 3.5 mph - N/A   Clear
3:34 AM 51.8 °F - 46.4 °F 82% 30.14 in 10.0 mi West 3.5 mph - N/A   Clear
3:54 AM 51.8 °F - 46.4 °F 82% 30.14 in 10.0 mi West 3.5 mph - N/A   Clear
4:14 AM 51.8 °F - 46.4 °F 82% 30.15 in 10.0 mi West 3.5 mph - N/A   Clear
4:34 AM 48.2 °F - 44.6 °F 87% 30.15 in 10.0 mi Calm Calm - N/A   Clear
4:53 AM 48.2 °F - 44.6 °F 87% 30.15 in 10.0 mi Calm Calm - N/A   Clear
5:14 AM 48.2 °F - 44.6 °F 87% 30.16 in 10.0 mi Calm Calm - N/A   Clear
5:34 AM 48.2 °F - 44.6 °F 87% 30.16 in 10.0 mi Calm Calm - N/A   Clear
5:54 AM 48.2 °F - 44.6 °F 87% 30.16 in 10.0 mi WNW 3.5 mph - N/A   Clear
6:14 AM 46.4 °F 45.2 °F 42.8 °F 87% 30.17 in 10.0 mi SW 3.5 mph - N/A   Clear
6:34 AM 46.4 °F - 42.8 °F 87% 30.17 in 10.0 mi Calm Calm - N/A   Clear
6:54 AM 46.4 °F - 42.8 °F 87% 30.18 in 10.0 mi Calm Calm - N/A   Clear
7:13 AM 48.2 °F - 44.6 °F 87% 30.19 in 10.0 mi Calm Calm - N/A   Clear
7:34 AM 51.8 °F - 46.4 °F 82% 30.20 in 10.0 mi West 3.5 mph - N/A   Clear
7:54 AM 53.6 °F - 48.2 °F 82% 30.20 in 10.0 mi WNW 4.6 mph - N/A   Clear
8:13 AM 53.6 °F - 48.2 °F 82% 30.20 in 10.0 mi WNW 4.6 mph - N/A   Clear
8:34 AM 57.2 °F - 50.0 °F 77% 30.19 in 10.0 mi NW 3.5 mph - N/A   Clear
8:54 AM 59.0 °F - 51.8 °F 77% 30.20 in 10.0 mi WNW 3.5 mph - N/A   Clear
9:13 AM 60.8 °F - 53.6 °F 77% 30.20 in 10.0 mi West 3.5 mph - N/A   Clear
9:34 AM 62.6 °F - 53.6 °F 72% 30.20 in 10.0 mi NW 5.8 mph - N/A   Clear
9:54 AM 64.4 °F - 53.6 °F 68% 30.20 in 10.0 mi NW 4.6 mph - N/A   Clear
10:13 AM 66.2 °F - 53.6 °F 64% 30.20 in 10.0 mi WNW 5.8 mph - N/A   Clear
10:34 AM 68.0 °F - 53.6 °F 60% 30.20 in 10.0 mi NW 5.8 mph - N/A   Clear
10:54 AM 69.8 °F - 51.8 °F 53% 30.20 in 10.0 mi WNW 9.2 mph - N/A   Clear
11:13 AM 69.8 °F - 53.6 °F 56% 30.20 in 10.0 mi West 5.8 mph - N/A   Clear
11:34 AM 71.6 °F - 53.6 °F 53% 30.20 in 10.0 mi NW 4.6 mph - N/A   Clear
11:54 AM 71.6 °F - 51.8 °F 50% 30.20 in 10.0 mi NNW 4.6 mph - N/A   Clear
12:13 PM 71.6 °F - 51.8 °F 50% 30.20 in 10.0 mi North 4.6 mph - N/A   Clear
12:34 PM 71.6 °F - 51.8 °F 50% 30.19 in 10.0 mi WNW 8.1 mph - N/A   Clear
12:54 PM 71.6 °F - 50.0 °F 46% 30.19 in 10.0 mi SSW 3.5 mph - N/A   Clear
1:13 PM 71.6 °F - 50.0 °F 46% 30.19 in 10.0 mi WNW 6.9 mph - N/A   Clear
1:34 PM 71.6 °F - 50.0 °F 46% 30.19 in 10.0 mi East 3.5 mph - N/A   Clear
1:53 PM 71.6 °F - 53.6 °F 53% 30.18 in 10.0 mi East 8.1 mph - N/A   Clear
2:14 PM 73.4 °F - 53.6 °F 50% 30.17 in 10.0 mi ENE 8.1 mph - N/A   Clear
2:34 PM 73.4 °F - 53.6 °F 50% 30.18 in 10.0 mi East 8.1 mph - N/A   Clear
2:53 PM 73.4 °F - 53.6 °F 50% 30.17 in 10.0 mi East 9.2 mph - N/A   Clear
3:14 PM 73.4 °F - 53.6 °F 50% 30.17 in 10.0 mi East 9.2 mph - N/A   Clear
3:34 PM 73.4 °F - 53.6 °F 50% 30.17 in 10.0 mi East 5.8 mph - N/A   Clear
3:54 PM 73.4 °F - 53.6 °F 50% 30.16 in 10.0 mi East 6.9 mph - N/A   Clear
4:14 PM 75.2 °F - 53.6 °F 47% 30.16 in 10.0 mi East 6.9 mph - N/A   Clear
4:33 PM 73.4 °F - 53.6 °F 50% 30.15 in 10.0 mi East 8.1 mph - N/A   Clear
4:54 PM 73.4 °F - 51.8 °F 47% 30.15 in 10.0 mi ENE 5.8 mph - N/A   Clear
5:14 PM 75.2 °F - 53.6 °F 47% 30.15 in 10.0 mi ESE 8.1 mph - N/A   Clear
5:33 PM 75.2 °F - 53.6 °F 47% 30.14 in 10.0 mi East 6.9 mph - N/A   Clear
5:54 PM 73.4 °F - 53.6 °F 50% 30.15 in 10.0 mi East 5.8 mph - N/A   Clear
6:14 PM 71.6 °F - 53.6 °F 53% 30.14 in 10.0 mi East 4.6 mph - N/A   Clear
6:33 PM 71.6 °F - 55.4 °F 57% 30.14 in 10.0 mi ESE 6.9 mph - N/A   Scattered Clouds
6:54 PM 73.4 °F - 55.4 °F 53% 30.14 in 10.0 mi East 4.6 mph - N/A   Scattered Clouds
7:14 PM 73.4 °F - 55.4 °F 53% 30.14 in 10.0 mi ESE 3.5 mph - N/A   Clear
7:33 PM 71.6 °F - 55.4 °F 57% 30.13 in 10.0 mi Calm Calm - N/A   Clear
7:54 PM 69.8 °F - 55.4 °F 60% 30.13 in 10.0 mi Calm Calm - N/A   Clear
8:14 PM 66.2 °F - 55.4 °F 68% 30.13 in 10.0 mi Calm Calm - N/A   Clear
8:33 PM 62.6 °F - 55.4 °F 77% 30.14 in 10.0 mi SW 3.5 mph - N/A   Clear
8:54 PM 62.6 °F - 53.6 °F 72% 30.14 in 10.0 mi Calm Calm - N/A   Clear
9:14 PM 60.8 °F - 53.6 °F 77% 30.14 in 10.0 mi Calm Calm - N/A   Clear
9:34 PM 59.0 °F - 53.6 °F 82% 30.14 in 10.0 mi Calm Calm - N/A   Clear
9:54 PM 57.2 °F - 51.8 °F 82% 30.14 in 10.0 mi SSE 4.6 mph - N/A   Clear
10:14 PM 57.2 °F - 51.8 °F 82% 30.15 in 10.0 mi Calm Calm - N/A   Clear
10:34 PM 57.2 °F - 51.8 °F 82% 30.15 in 10.0 mi South 3.5 mph - N/A   Clear
10:54 PM 55.4 °F - 51.8 °F 88% 30.15 in 10.0 mi Calm Calm - N/A   Clear
11:14 PM 55.4 °F - 51.8 °F 88% 30.15 in 10.0 mi South 3.5 mph - N/A   Clear
11:34 PM 59.0 °F - 51.8 °F 77% 30.15 in 10.0 mi South 3.5 mph - N/A   Clear
11:53 PM 55.4 °F - 51.8 °F 88% 30.15 in 10.0 mi Calm Calm - N/A   Clear